User: anonymous
Location: Fishcreek Rd Observing Site
(41.1865°N, 81.4271°W)
Time: 11:52:11
(UTC-04:00)
Language:

Iridium 75 - Orbit

View from above orbital plane
View from above orbital plane
View from above satellite
View from above satellite

Ground track
Ground track

The orbit data is extracted from the following two-line orbital elements,

1 25346U 98032E   14273.45123102  .00000263  00000-0  86801-4 0    42
2 25346 086.3921 278.1950 0002307 104.7591 065.3184 14.34219419857669
Epoch (UTC): 30 September 2014 10:49:46
Eccentricity: 0.0002307
inclination: 86.3921°
perigee height: 776 km
apogee height: 779 km
right ascension of ascending node: 278.1950°
argument of perigee: 104.7591°
revolutions per day: 14.34219419
mean anomaly at epoch: 65.3184°
orbit number at epoch: 85766

The dashed part of the orbit path shows where the satellite is in the earth's shadow,  

DLR